Regional Weather Roundup
Issued by NWS

Home | Current Version | Previous Version | Text Only | Print | Product List | Glossary On
Versions: 1 2 3 4 5 6 7 8 9 10 11 12 13 14 15 16 17 18 19 20 21 22 23 24 25 26 27 28 29 30 31 32 33 34 35 36 37 38 39 40 41 42 43 44 45 46 47 48 49 50
000
ASUS45 KSLC 241110
RWRUT

UTAH REGIONAL WEATHER ROUNDUP
NATIONAL WEATHER SERVICE SALT LAKE CITY UT
500 AM MDT MON APR 24 2017

UTZ001>011-023>025-241200-

NORTHERN UTAH

CITY           SKY/WX    TMP DP  RH WIND       PRES   REMARKS
BRIGHAM CITY   MOCLDY    49  36  61 CALM      29.73F
HILL AFB       PTCLDY    45  33  62 E14       29.73F
LOGAN          PTCLDY    38  35  89 CALM      29.74S
OGDEN          MOCLDY    43  35  73 S8        29.73F
SALT LAKE CITY MOCLDY    51  38  60 SE10      29.72F
TOOELE VALLEY  MOCLDY    46  36  66 S16       29.72F
WENDOVER       MOCLDY    47  33  58 W3        29.72
HEBER CITY     PTCLDY    32  30  93 CALM      29.79F
WEST JORDAN    MOCLDY    51  46  82 SW9       29.74F

$$

UTZ011>015-024>027-241200-

CENTRAL/NORTHEAST UTAH

CITY           SKY/WX    TMP DP  RH WIND       PRES   REMARKS
PROVO AIRPORT  MOCLDY    40  38  93 NE3       29.77F
MOAB/CANYONLAN PTCLDY    47  30  51 E3        29.76F
DELTA          CLOUDY    43  37  81 NE7       29.77S
PRICE          PTCLDY    39  32  76 N5        29.81F
RICHFIELD      CLEAR     36  36 100 CALM      29.83S
ROOSEVELT      PTCLDY    41  32  70 W7        29.81S
VERNAL         PTCLDY    43  36  76 W7        29.79F

$$

UTZ013>016-019>022-027-241200-

SOUTHERN UTAH

CITY           SKY/WX    TMP DP  RH WIND       PRES   REMARKS
BRYCE CANYON   PTCLDY    28  22  78 W6        29.89S WCI  22
CEDAR CITY     PTCLDY    38  30  73 N3        29.79S
MILFORD        MOCLDY    40  34  79 S6        29.77S
ST GEORGE      MOSUNNY   57  24  28 CALM      29.69R
HANKSVILLE     PTCLDY    45  30  57 CALM      29.79F
KANAB          CLEAR     43  27  52 N3        29.83S
BLANDING       PTCLDY    44  25  46 N10       29.89F

$$

REGIONAL REPORTS     COLORADO/ARIZONA

CITY           SKY/WX    TMP DP  RH WIND       PRES   REMARKS
CRAIG, CO      CLOUDY    41  37  86 SE3       29.84F
GRAND JUNCTION PTCLDY    49  32  52 NE8       29.77F
RIFLE, CO      CLOUDY    47  35  63 E5        29.81R
MONTROSE, CO   CLOUDY    52  28  39 SW6       29.83S
CORTEZ, CO     CLOUDY    39  26  59 NE8       29.85S WCI  33
COLORADO CITY    N/A     37  28  70 CALM      29.81R
PAGE, AZ       PTCLDY    57  27  31 S3        29.74F
GRAND CANYON   PTCLDY    36  22  56 CALM      29.89F
KINGMAN, AZ    CLEAR     50  19  29 SE3       29.75R
FLAGSTAFF, AZ  CLEAR     46  22  38 CALM      29.94S

$$

REGIONAL REPORTS    NEVADA/IDAHO/WYOMING

CITY           SKY/WX    TMP DP  RH WIND       PRES   REMARKS
LAS VEGAS, NV  MOCLDY    65  23  20 S8        29.66R
ELY, NY        CLOUDY    33  28  81 S6        29.82F WCI  28
ELKO, NV       CLOUDY    45  30  55 SW8       29.78F
POCATELLO, ID  MOCLDY    44  36  73 S5        29.74S
BURLEY, ID     CLOUDY    44  39  82 SW5       29.73S
EVANSTON, WY   CLEAR     32  29  88 SW9       29.80F WCI  24
ROCK SPRINGS,  CLOUDY    37  32  82 SE3       29.81S
KEMMERER, WY     N/A     30  28  93 NW8       29.80F WCI  23

$$



USA.gov is the U.S. government's official web portal to all federal, state and local government web resources and services.